Weather History for Ogallala, NE

Change the Weather History Date:

Friday, January 3, 2014

  Actual Average Record
Temperature  
Mean Temperature 38 °F -  
Max Temperature 58 °F 34 °F 60 °F (2003)
Min Temperature 18 °F 8 °F -20 °F (1974)
Degree Days  
Heating Degree Days 27    
Moisture  
Dew Point 26 °F    
Average Humidity 66    
Maximum Humidity 91    
Minimum Humidity 36    
Precipitation  
Precipitation 0.00 in - - ()
Sea Level Pressure  
Sea Level Pressure 29.70 in    
Wind  
Wind Speed 7 mph (West)    
Max Wind Speed 24 mph    
Max Gust Speed 37 mph    
Visibility 10 miles    
Events      
Averages and records for this station are not official NWS values.
T = Trace of Precipitation, MM = Missing Value Source: NWS Daily Summary

Daily Weather History Graph

Daily Weather History Graph

Search for Another Location

Airport:

Trip Planner

Search our weather history database for the weather conditions in past years. The results will help you decide how hot, cold, wet, or windy it might be!

Date:

Astronomy

Jan. 03, 2014 Rise Set
Actual Time 7:12 AM MST 4:31 PM MST
Civil Twilight 6:41 AM MST 5:01 PM MST
Nautical Twilight 6:07 AM MST 5:36 PM MST
Astronomical Twilight 5:33 AM MST 6:09 PM MST
Moon 8:38 AM MST (1/3) 7:44 PM MST (1/3)
Length of Visible Light 10h 20m
Length of Day
9h 18m
Waxing Crescent, 8% of the Moon is Illuminated
Jan 3
Waxing Crescent
Jan 7
First Quarter
Jan 15
Full
Jan 23
Last Quarter
Jan 30
New

Hourly Weather History & Observations

Time (MST) Temp. Windchill Dew Point Humidity Pressure Visibility Wind Dir Wind Speed Gust Speed Precip Events Conditions
12:15 AM 26.4 °F - 21.0 °F 80% 30.00 in 10.0 mi Calm Calm - N/A   Clear
12:35 AM 25.7 °F 20.1 °F 20.1 °F 79% 30.00 in 10.0 mi WSW 4.6 mph - N/A   Clear
12:55 AM 23.5 °F 17.6 °F 19.2 °F 84% 29.98 in 10.0 mi WSW 4.6 mph - N/A   Clear
1:15 AM 23.0 °F 17.0 °F 18.9 °F 84% 29.97 in 10.0 mi WSW 4.6 mph - N/A   Clear
1:35 AM 23.7 °F 19.3 °F 19.4 °F 84% 29.96 in 10.0 mi WSW 3.5 mph - N/A   Clear
1:55 AM 23.4 °F - 19.2 °F 84% 29.95 in 10.0 mi Calm Calm - N/A   Clear
2:15 AM 19.9 °F - 16.3 °F 86% 29.94 in 10.0 mi Calm Calm - N/A   Clear
2:35 AM 21.2 °F 13.6 °F 17.8 °F 87% 29.93 in 10.0 mi West 5.8 mph - N/A   Clear
2:55 AM 21.2 °F - 17.8 °F 87% 29.92 in 10.0 mi Calm Calm - N/A   Clear
3:15 AM 19.9 °F 14.9 °F 16.9 °F 88% 29.91 in 10.0 mi West 3.5 mph - N/A   Clear
3:35 AM 21.6 °F 16.8 °F 18.3 °F 87% 29.90 in 10.0 mi West 3.5 mph - N/A   Clear
3:55 AM 20.1 °F 13.6 °F 16.7 °F 87% 29.88 in 10.0 mi West 4.6 mph - N/A   Clear
4:15 AM 18.1 °F 12.9 °F 15.6 °F 90% 29.87 in 10.0 mi West 3.5 mph - N/A   Clear
4:35 AM 18.9 °F - 16.3 °F 90% 29.86 in 10.0 mi Calm Calm - N/A   Clear
4:55 AM 18.1 °F 12.9 °F 15.6 °F 90% 29.86 in 10.0 mi West 3.5 mph - N/A   Clear
5:15 AM 18.1 °F 11.3 °F 16.0 °F 91% 29.84 in 10.0 mi SW 4.6 mph - N/A   Clear
5:35 AM 19.9 °F 12.1 °F 17.4 °F 90% 29.83 in 10.0 mi SW 5.8 mph - N/A   Clear
5:55 AM 20.3 °F 12.5 °F 17.4 °F 89% 29.82 in 10.0 mi WSW 5.8 mph - N/A   Clear
6:15 AM 18.9 °F 13.7 °F 16.5 °F 91% 29.81 in 10.0 mi WSW 3.5 mph - N/A   Clear
6:35 AM 20.3 °F 11.5 °F 18.1 °F 91% 29.80 in 10.0 mi WSW 6.9 mph - N/A   Clear
6:55 AM 20.7 °F 11.9 °F 17.8 °F 89% 29.79 in 10.0 mi West 6.9 mph - N/A   Clear
7:15 AM 21.0 °F 12.4 °F 18.3 °F 89% 29.78 in 10.0 mi West 6.9 mph - N/A   Clear
7:35 AM 21.7 °F 11.5 °F 18.7 °F 88% 29.78 in 10.0 mi West 9.2 mph - N/A   Clear
7:55 AM 23.0 °F 13.9 °F 19.8 °F 87% 29.76 in 10.0 mi WSW 8.1 mph - N/A   Clear
8:15 AM 25.2 °F 17.3 °F 21.4 °F 86% 29.76 in 10.0 mi WSW 6.9 mph - N/A   Clear
8:35 AM 27.7 °F 18.2 °F 23.4 °F 84% 29.75 in 10.0 mi WSW 10.4 mph - N/A   Clear
8:55 AM 29.8 °F 22.2 °F 24.8 °F 81% 29.75 in 10.0 mi WSW 8.1 mph - N/A   Clear
9:15 AM 32.2 °F 22.3 °F 26.1 °F 78% 29.73 in 10.0 mi WSW 13.8 mph - N/A   Clear
9:35 AM 34.2 °F 24.4 °F 26.1 °F 72% 29.73 in 10.0 mi WSW 15.0 mph - N/A   Clear
9:55 AM 35.1 °F 26.4 °F 27.3 °F 73% 29.72 in 10.0 mi WSW 12.7 mph - N/A   Clear
10:15 AM 37.8 °F 29.8 °F 28.9 °F 71% 29.70 in 10.0 mi West 12.7 mph - N/A   Clear
10:35 AM 40.3 °F 32.6 °F 29.5 °F 65% 29.69 in 10.0 mi West 13.8 mph 18.4 mph N/A   Clear
10:55 AM 41.9 °F 34.6 °F 30.2 °F 63% 29.67 in 10.0 mi West 13.8 mph 18.4 mph N/A   Clear
11:15 AM 43.5 °F 37.9 °F 30.2 °F 59% 29.65 in 10.0 mi WSW 10.4 mph - N/A   Clear
11:35 AM 45.9 °F 40.8 °F 30.6 °F 55% 29.64 in 10.0 mi West 10.4 mph - N/A   Clear
11:55 AM 47.1 °F - 32.0 °F 56% 29.62 in 10.0 mi West 10.4 mph - N/A   Clear
12:15 PM 49.3 °F - 30.7 °F 49% 29.60 in 10.0 mi WSW 6.9 mph - N/A   Clear
12:35 PM 50.9 °F - 32.4 °F 49% 29.57 in 10.0 mi West 9.2 mph - N/A   Clear
12:55 PM 53.1 °F - 33.6 °F 48% 29.56 in 10.0 mi WSW 8.1 mph - N/A   Clear
1:15 PM 55.8 °F - 33.4 °F 43% 29.54 in 10.0 mi WSW 8.1 mph - N/A   Clear
1:35 PM 57.7 °F - 31.5 °F 37% 29.52 in 10.0 mi SW 13.8 mph 18.4 mph N/A   Clear
1:55 PM 57.7 °F - 31.5 °F 37% 29.52 in 10.0 mi SW 9.2 mph - N/A   Clear
2:15 PM 58.3 °F - 31.5 °F 36% 29.51 in 10.0 mi WSW 9.2 mph - N/A   Scattered Clouds
2:35 PM 56.3 °F - 34.7 °F 44% 29.51 in 10.0 mi West 9.2 mph - N/A   Scattered Clouds
2:55 PM 55.8 °F - 33.3 °F 43% 29.52 in 10.0 mi West 5.8 mph - N/A   Clear
3:15 PM 55.2 °F - 32.7 °F 43% 29.51 in 10.0 mi West 9.2 mph - N/A   Clear
3:35 PM 54.1 °F - 31.5 °F 42% 29.51 in 10.0 mi West 9.2 mph - N/A   Clear
3:55 PM 52.7 °F - 31.1 °F 44% 29.50 in 10.0 mi West 8.1 mph - N/A   Clear
4:15 PM 50.2 °F - 30.6 °F 47% 29.50 in 10.0 mi West 8.1 mph - N/A   Clear
4:35 PM 49.6 °F - 30.4 °F 48% 29.50 in 10.0 mi West 8.1 mph - N/A   Clear
4:55 PM 49.5 °F - 29.7 °F 47% 29.51 in 10.0 mi WNW 4.6 mph - N/A   Clear
5:15 PM 49.6 °F - 30.2 °F 47% 29.51 in 10.0 mi West 9.2 mph - N/A   Clear
5:35 PM 51.8 °F - 28.4 °F 41% 29.50 in 10.0 mi WNW 19.6 mph - N/A   Clear
5:55 PM 47.1 °F - 31.6 °F 55% 29.52 in 10.0 mi WSW 11.5 mph - N/A   Clear
6:15 PM 51.4 °F - 30.2 °F 44% 29.53 in 10.0 mi West 9.2 mph - N/A   Clear
6:35 PM 46.6 °F - 30.7 °F 54% 29.54 in 10.0 mi WNW 11.5 mph - N/A   Clear
6:55 PM 52.2 °F - 27.7 °F 39% 29.55 in 10.0 mi WNW 16.1 mph - N/A   Clear
7:15 PM 51.4 °F - 28.9 °F 42% 29.56 in 10.0 mi WNW 12.7 mph 20.7 mph N/A   Clear
7:35 PM 53.6 °F - 29.1 °F 39% 29.57 in 10.0 mi WNW 19.6 mph 25.3 mph N/A   Clear
7:55 PM 54.3 °F - 27.7 °F 36% 29.57 in 10.0 mi WNW 24.2 mph 36.8 mph N/A   Clear
8:15 PM 52.7 °F - 28.4 °F 39% 29.57 in 10.0 mi NW 23.0 mph 31.1 mph N/A   Clear
8:35 PM 48.9 °F - 29.7 °F 47% 29.60 in 10.0 mi North 16.1 mph 21.9 mph N/A   Clear
8:55 PM 45.9 °F 39.4 °F 29.5 °F 53% 29.62 in 10.0 mi North 15.0 mph - N/A   Clear
9:15 PM 43.2 °F 36.6 °F 29.3 °F 58% 29.63 in 10.0 mi North 12.7 mph - N/A   Clear
9:35 PM 41.5 °F 35.0 °F 29.3 °F 62% 29.65 in 10.0 mi NNW 11.5 mph - N/A   Clear
9:55 PM 41.0 °F 32.2 °F 32.0 °F 70% 29.67 in 10.0 mi NNW 18.4 mph - N/A   Clear
10:15 PM 40.1 °F 31.6 °F 32.0 °F 73% 29.69 in 10.0 mi North 16.1 mph - N/A   Clear
10:35 PM 38.7 °F 30.5 °F 32.0 °F 77% 29.69 in 10.0 mi NNW 13.8 mph - N/A   Clear
10:55 PM 37.4 °F 28.9 °F 29.7 °F 74% 29.70 in 10.0 mi NNW 13.8 mph - N/A   Clear
11:15 PM 37.2 °F 29.6 °F 27.7 °F 68% 29.71 in 10.0 mi NNW 11.5 mph - N/A   Clear
11:35 PM 36.5 °F 27.0 °F 28.0 °F 71% 29.71 in 10.0 mi NNW 16.1 mph - N/A   Clear
11:55 PM 37.0 °F 27.4 °F 28.4 °F 71% 29.70 in 10.0 mi NNW 17.3 mph - N/A   Clear